{"data":{"norad_id":58371,"intl_designator":"2023-177W","name":"STARLINK-30859","alt_names":[],"object_type":"PAYLOAD","status":"ACTIVE","operator":null,"country":"US","launch_date":"2023-11-18","launch_site_code":"AFETR","launch_vehicle":null,"mission":null,"orbit_class":"UNKNOWN","rcs_meters":null,"size_class":null,"mass_kg":null,"dimensions":null,"purposes":["comms"],"wikipedia_slug":null,"has_3d_model":false,"image_url":null,"decayed_at":null,"tle_current":{"epoch":"2026-09-20T20:54:46.001664Z","epoch_age_seconds":111604,"freshness":"FRESH","line1":"1 58371U 23177W   26263.87136576  .00000370  00000+0  22964-4 0  9992","line2":"2 58371  43.0028 328.6560 0001319 277.5293  82.5409 15.27577774158084","mean_motion":15.27577774,"eccentricity":0.0001319,"inclination_deg":43.0028,"raan_deg":328.656,"arg_perigee_deg":277.5293,"mean_anomaly_deg":82.5409,"bstar":2.2964e-5,"rev_number":15808,"period_min":94.266886080001,"perigee_km":482.15077016731,"apogee_km":483.96075281779,"semimajor_km":6861.1927614925,"source":"CELESTRAK","updated_at":"2026-09-21T09:00:33.863879Z"}}}